TimeEST,TemperatureF,Dew PointF,Humidity,Sea Level PressureIn,VisibilityMPH,Wind Direction,Wind SpeedMPH,Gust SpeedMPH,PrecipitationIn,Events,Conditions,WindDirDegrees,DateUTC
12:53 AM,33.1,32.0,96,30.08,3.0,Calm,Calm,-,N/A,,Clear,0,2013-02-15 05:53:00
1:53 AM,32.0,30.9,96,30.08,3.0,Calm,Calm,-,N/A,,Clear,0,2013-02-15 06:53:00
2:53 AM,32.0,30.9,96,30.08,6.0,Calm,Calm,-,N/A,,Clear,0,2013-02-15 07:53:00
3:53 AM,30.0,30.0,100,30.08,7.0,Calm,Calm,-,N/A,,Clear,0,2013-02-15 08:53:00
4:53 AM,28.9,28.9,100,30.08,9.0,Calm,Calm,-,N/A,,Clear,0,2013-02-15 09:53:00
5:53 AM,30.0,28.9,96,30.10,9.0,Calm,Calm,-,N/A,,Clear,0,2013-02-15 10:53:00
6:53 AM,30.0,28.9,96,30.12,9.0,Calm,Calm,-,N/A,,Clear,0,2013-02-15 11:53:00
7:53 AM,30.0,28.9,96,30.13,9.0,Calm,Calm,-,N/A,,Clear,0,2013-02-15 12:53:00
8:53 AM,36.0,35.1,97,30.13,10.0,Calm,Calm,-,N/A,,Clear,0,2013-02-15 13:53:00
9:53 AM,45.0,39.0,80,30.13,10.0,Calm,Calm,-,N/A,,Clear,0,2013-02-15 14:53:00
10:53 AM,48.9,39.0,69,30.12,-9999.0,North,-9999.0,-,N/A,,Unknown,0,2013-02-15 15:53:00
11:53 AM,55.0,37.9,53,30.11,10.0,Variable,3.5,-,N/A,,Clear,0,2013-02-15 16:53:00
12:53 PM,59.0,37.0,44,30.08,10.0,Calm,Calm,-,N/A,,Clear,0,2013-02-15 17:53:00
1:53 PM,60.1,33.1,36,30.04,10.0,Variable,4.6,-,N/A,,Clear,0,2013-02-15 18:53:00
2:53 PM,60.1,30.0,32,30.01,10.0,Variable,6.9,-,N/A,,Clear,0,2013-02-15 19:53:00
3:53 PM,60.1,30.0,32,29.99,10.0,Calm,Calm,-,N/A,,Partly Cloudy,0,2013-02-15 20:53:00
4:53 PM,59.0,33.1,38,30.00,10.0,Calm,Calm,-,N/A,,Mostly Cloudy,0,2013-02-15 21:53:00
5:53 PM,55.9,36.0,47,30.00,10.0,Calm,Calm,-,N/A,,Overcast,0,2013-02-15 22:53:00
7:53 PM,48.9,36.0,61,30.06,10.0,North,8.1,16.1,N/A,,Scattered Clouds,360,2013-02-16 00:53:00
8:53 PM,46.9,34.0,61,30.06,10.0,North,4.6,-,N/A,,Overcast,350,2013-02-16 01:53:00
9:53 PM,46.0,35.1,66,30.07,10.0,North,5.8,-,N/A,,Overcast,350,2013-02-16 02:53:00
10:53 PM,45.0,35.1,68,30.06,10.0,Calm,Calm,-,N/A,,Mostly Cloudy,0,2013-02-16 03:53:00
11:53 PM,42.1,34.0,73,30.05,10.0,NNW,4.6,-,N/A,,Partly Cloudy,330,2013-02-16 04:53:00